GFSSGP_sfc_wetblb_132.txt.gz
Wetbulb
60.70 54.95 50.95 52.50 45.17 42.71 39.48 43.41 45.99 48.31 50.20 52.62 54.00 54.60 56.14 58.80 58.73 54.27 67.55 71.43 73.76 74.28 75.66 75.94 76.95 76.78 76.57 76.52 76.41 76.23 76.40 76.23 76.19 76.09 76.00 75.85 75.85 76.05 76.35 76.59 76.70 76.70 75.93 74.67 74.08 74.69 74.74 74.37 74.40
56.97 52.91 52.80 47.56 40.88 36.82 40.26 44.34 45.87 49.23 52.43 53.60 53.91 60.43 61.31 58.61 62.43 66.68 67.64 72.93 73.82 74.67 75.53 75.51 77.09 76.57 76.57 76.22 75.93 75.98 76.10 76.06 75.69 75.72 75.79 75.77 76.02 76.29 76.57 76.49 76.60 76.02 75.65 74.74 74.06 74.95 74.83 74.73 74.54
51.55 51.86 47.91 44.41 38.34 37.36 40.78 45.58 48.49 50.55 52.31 52.37 52.41 57.73 63.44 63.41 68.10 67.65 69.62 73.42 74.12 74.18 74.99 75.38 76.96 76.54 76.37 76.24 75.81 75.71 75.85 75.76 75.56 75.62 75.79 76.02 76.39 76.36 76.36 76.34 76.32 75.81 75.16 74.67 73.82 74.53 74.98 74.88 74.62
46.61 46.30 44.86 39.84 37.33 41.95 45.23 47.07 47.50 49.49 51.63 53.50 52.77 51.79 64.92 68.92 69.70 69.05 72.73 74.20 73.62 73.17 74.18 76.60 76.83 76.56 76.24 76.42 76.04 75.83 75.76 75.64 75.52 75.50 75.52 75.97 76.21 76.19 76.32 76.35 76.19 75.97 74.81 74.28 73.95 74.38 74.74 74.84 74.44
43.75 40.77 35.22 33.09 36.97 42.93 46.93 49.11 48.83 49.01 49.24 50.39 52.00 51.13 63.20 68.08 71.93 72.27 73.05 73.78 73.15 73.19 74.88 75.66 76.72 76.51 76.34 76.30 75.94 75.69 75.74 75.63 75.64 75.37 75.35 75.37 75.63 75.82 75.97 76.03 75.99 75.72 75.06 74.28 73.73 73.96 74.55 74.50 74.20
39.76 37.91 30.44 31.84 35.85 42.76 45.34 49.67 48.75 47.93 48.92 49.43 49.55 56.66 62.72 68.39 70.34 71.40 73.22 73.45 74.20 74.09 74.53 75.34 76.48 76.40 76.01 75.99 75.93 75.46 75.40 75.47 75.73 75.50 75.23 75.30 75.24 75.49 75.54 75.74 75.83 75.59 75.12 74.54 73.99 74.35 74.07 73.53 73.30
37.87 34.07 29.81 29.09 33.43 37.57 42.67 47.66 47.59 48.13 48.68 47.85 49.71 57.29 62.83 67.07 69.70 71.71 72.92 73.79 74.21 74.59 74.42 74.64 75.21 75.41 76.00 75.67 75.60 75.37 75.12 75.32 75.41 75.30 75.49 75.57 75.65 75.52 75.45 75.34 75.33 75.23 74.86 74.49 74.39 74.26 73.62 73.18 72.91
40.04 36.68 30.13 32.12 33.84 35.41 42.09 44.18 45.86 46.36 45.86 49.83 62.61 56.01 57.83 65.71 71.23 72.05 72.63 72.97 73.26 73.79 73.79 73.09 73.61 73.93 74.36 74.45 75.71 75.49 75.25 75.22 75.03 75.20 75.39 75.41 75.41 75.71 75.54 74.49 74.81 74.76 74.41 74.36 74.45 74.15 73.71 73.44 72.99
40.97 32.61 28.63 32.45 35.94 37.67 42.28 41.62 46.93 48.88 46.57 47.37 63.52 64.55 65.86 69.68 71.13 70.38 70.29 70.93 71.65 72.70 72.49 72.61 72.86 73.36 73.98 73.86 74.68 75.52 75.16 75.27 75.11 75.17 75.23 74.27 73.68 74.35 74.58 74.71 74.13 74.75 74.31 73.96 74.08 73.95 73.68 73.38 73.13
37.60 31.01 33.04 38.66 40.34 39.04 42.38 42.58 43.97 45.36 45.35 45.23 55.79 66.16 68.15 68.83 69.19 68.52 68.25 68.28 69.68 70.54 71.63 72.50 72.75 72.78 73.12 74.42 73.98 73.91 73.95 73.99 73.59 73.73 73.82 72.47 71.97 72.22 73.25 73.92 74.42 74.35 74.77 74.50 74.03 73.86 73.65 73.25 71.16
36.84 34.98 38.09 39.80 41.89 42.95 42.84 42.32 43.97 42.76 40.76 44.84 46.14 63.03 66.27 67.39 67.42 67.83 67.97 68.20 68.50 69.83 71.02 71.74 72.46 72.72 73.09 73.41 73.68 73.45 73.51 73.43 73.14 72.94 72.93 71.87 71.69 71.83 72.32 71.79 72.11 72.53 73.06 72.55 72.09 71.62 71.07 70.59 69.51
32.77 37.55 39.84 40.85 42.53 42.46 42.21 44.89 43.46 42.64 43.97 47.23 55.25 64.13 66.16 66.43 66.03 66.67 66.61 67.21 67.18 68.50 69.40 71.19 72.17 72.53 72.78 73.53 73.28 72.99 73.03 72.99 72.58 72.71 72.02 71.19 70.42 69.95 70.35 70.44 70.37 70.35 70.79 70.61 70.38 69.54 69.44 68.63 68.70
33.91 37.15 38.96 41.82 41.07 40.50 42.17 42.02 42.91 41.91 45.99 48.03 47.65 55.30 65.08 65.93 66.31 66.24 66.08 65.74 65.05 67.42 69.44 70.92 72.30 72.08 72.84 72.42 72.57 72.93 72.87 72.57 72.24 72.39 72.00 71.20 69.90 69.02 69.18 69.22 69.24 69.28 69.62 69.44 69.19 68.69 68.36 68.15 68.00
38.85 39.16 40.40 39.92 39.96 40.30 40.47 41.63 42.14 43.83 46.41 46.71 46.98 52.05 62.64 65.52 65.95 64.93 64.75 64.81 64.24 65.90 68.82 70.26 71.48 71.97 72.50 72.33 72.47 72.19 72.52 72.42 72.11 71.57 71.82 71.05 70.12 69.11 68.05 68.21 68.21 68.36 68.89 69.07 69.03 68.98 68.90 68.21 68.29
39.38 34.90 37.89 38.28 39.77 39.70 40.17 38.97 39.66 44.65 45.90 45.25 48.82 60.52 63.28 65.04 65.40 65.71 66.74 65.18 64.37 64.59 67.87 69.71 70.59 70.44 70.79 71.41 71.84 71.72 72.12 71.71 70.82 70.61 71.05 71.39 70.34 69.24 68.67 67.69 67.57 68.25 68.83 68.80 68.62 69.04 69.33 68.33 68.27
35.72 34.27 32.33 36.40 39.36 40.09 40.30 34.40 41.11 44.18 44.35 44.71 45.66 58.10 62.11 63.03 65.24 66.30 66.28 64.15 64.85 64.57 65.75 68.03 69.74 69.45 69.46 70.61 70.40 69.86 70.12 69.73 70.33 70.11 70.01 70.77 70.81 69.92 67.91 67.74 67.85 68.65 68.88 68.69 68.54 68.78 68.50 68.43 68.77
33.50 29.22 29.75 34.59 38.98 39.71 38.20 33.85 41.57 43.68 43.60 43.92 43.78 54.44 60.52 60.39 61.12 63.76 64.47 63.89 64.70 64.68 65.14 66.95 68.43 68.29 68.23 68.08 68.32 68.14 68.64 69.11 69.56 69.69 69.23 69.43 70.05 70.12 68.81 67.92 67.88 68.73 69.28 69.24 68.88 68.50 68.30 68.88 69.02
29.52 31.56 33.92 34.23 37.70 37.92 35.10 34.47 41.21 41.55 42.87 43.57 43.28 45.00 57.93 59.31 60.82 62.67 62.83 63.47 63.55 64.97 64.22 65.77 67.29 67.16 67.58 67.60 67.19 66.81 67.04 67.69 67.78 68.64 69.54 70.96 71.09 70.94 69.98 69.65 69.67 70.19 70.18 69.97 69.16 68.23 66.84 66.86 66.11
37.04 34.92 34.41 36.67 40.87 37.63 35.32 35.55 38.44 40.04 39.24 40.72 42.06 42.79 43.88 56.35 61.13 62.10 61.58 62.87 62.69 63.65 64.11 62.73 66.01 66.16 67.31 66.97 66.70 65.95 65.84 65.92 67.26 68.26 68.33 67.97 67.65 67.95 67.22 67.38 67.94 68.46 69.00 69.78 69.04 67.31 66.14 65.95 65.93
37.04 34.97 33.95 37.22 39.79 36.95 35.60 35.31 38.42 38.88 39.58 40.62 42.00 42.41 43.59 44.98 55.38 59.80 60.73 61.78 60.96 62.29 62.55 62.27 63.85 65.94 67.31 67.60 65.00 65.80 64.89 65.43 65.93 66.34 66.55 67.11 66.53 66.62 65.95 65.34 65.78 67.42 67.33 65.04 64.32 65.42 65.48 66.08 66.65
37.08 35.66 34.53 35.74 38.27 37.61 35.81 33.73 36.66 40.21 39.80 41.11 42.00 43.08 43.70 44.51 45.73 54.45 60.38 61.26 60.57 59.38 60.49 62.07 62.09 63.82 65.56 63.09 62.82 62.50 62.73 62.73 63.52 63.81 64.51 65.97 66.50 66.57 66.42 66.19 65.97 66.28 66.00 64.84 63.89 62.57 65.12 63.50 64.55
32.96 40.56 38.63 37.95 34.25 28.97 35.38 26.37 33.34 37.04 38.93 40.42 41.18 41.44 41.87 43.57 44.91 49.00 58.52 58.78 58.84 59.57 59.57 60.85 61.94 63.27 63.00 62.61 62.53 62.07 61.04 60.50 61.49 61.73 64.30 65.32 65.97 66.35 67.80 67.67 67.56 67.40 66.22 65.16 64.24 66.06 65.74 65.89 64.19
36.82 42.74 40.49 40.20 33.73 29.75 30.79 29.00 32.56 36.08 36.81 39.75 42.14 46.22 47.98 48.89 43.19 45.10 55.86 59.56 58.54 57.63 58.63 60.77 61.29 61.79 62.11 61.64 61.52 60.75 60.23 60.98 61.92 60.95 60.91 61.76 64.63 65.68 66.48 67.18 68.14 66.14 64.98 66.05 66.48 66.64 66.34 65.82 63.32
43.82 41.24 40.18 36.18 30.78 24.48 29.72 29.82 30.11 33.36 39.99 41.84 44.90 49.12 51.10 51.46 51.10 49.32 51.75 55.01 57.30 60.22 61.89 62.51 62.51 61.55 61.65 61.58 61.02 60.83 60.82 60.66 60.15 60.48 61.94 61.22 62.38 60.73 61.01 61.99 63.14 64.25 65.84 65.89 65.57 65.81 65.31 65.30 64.77
41.80 37.49 26.31 23.56 22.31 23.19 31.60 29.74 31.00 41.45 44.41 45.19 45.31 48.36 50.27 52.10 53.47 53.90 52.96 56.24 57.18 58.00 58.51 59.04 58.68 57.24 58.25 57.33 56.97 56.89 56.50 56.72 56.48 57.12 56.98 56.02 56.34 56.66 56.78 58.14 58.12 58.93 59.82 60.19 60.60 61.45 62.79 62.55 62.44
37.73 35.73 24.35 19.95 20.49 23.18 32.24 27.59 32.74 44.99 47.64 49.85 49.76 50.06 51.16 51.60 51.94 53.12 54.51 55.08 54.25 54.15 54.55 54.65 54.50 53.90 54.51 54.85 54.53 54.79 54.61 54.24 54.22 54.20 54.72 54.70 55.19 55.38 55.97 55.84 55.78 55.93 55.69 56.44 56.75 57.26 58.01 57.58 57.83
39.19 34.04 35.45 28.03 27.60 26.08 29.77 37.04 43.46 46.41 46.95 49.29 48.59 49.84 49.86 50.59 52.18 52.25 52.12 51.52 52.14 52.14 52.55 52.96 53.14 53.11 53.68 54.00 54.49 54.43 54.47 54.33 53.93 54.14 54.34 53.84 54.19 54.06 53.44 53.38 53.22 53.42 53.09 53.21 53.20 53.45 53.01 53.73 54.84
41.34 40.96 32.49 30.33 23.04 21.56 31.60 33.33 35.71 43.01 45.74 48.16 47.73 48.46 50.30 50.92 50.83 50.64 50.36 50.28 50.76 51.15 51.37 52.26 52.48 52.13 52.85 53.54 53.22 53.05 53.09 53.09 53.01 52.33 51.44 50.93 50.92 50.96 50.80 50.70 51.05 51.03 51.10 50.95 50.72 49.73 51.64 50.88 50.42
37.98 36.92 35.67 33.17 29.98 26.15 27.46 32.09 41.72 43.76 45.28 46.93 48.06 49.29 47.90 47.50 46.98 45.49 45.97 46.61 46.61 48.36 48.99 49.37 50.54 49.91 48.93 49.07 49.12 49.66 50.00 50.19 49.73 48.71 48.58 48.55 48.61 48.61 48.50 49.03 49.09 48.61 48.65 48.85 48.34 48.16 49.34 48.70 48.70
40.05 37.42 32.94 26.74 28.94 29.86 29.32 35.66 45.45 45.58 45.70 47.47 47.45 45.64 44.07 43.57 43.39 43.94 44.82 45.21 44.95 44.62 44.91 45.18 45.81 46.15 46.68 47.83 48.50 48.45 48.22 47.82 47.30 47.19 47.50 48.10 47.06 47.29 47.43 47.56 47.49 47.60 47.46 47.57 46.95 46.69 47.22 47.40 47.19

GFSSGP_sfc_wetblb_138.txt.gz
Wetbulb
64.87 59.96 58.84 58.09 54.60 55.31 53.00 54.41 58.09 55.89 57.93 60.30 60.62 60.15 62.01 64.43 62.89 62.78 74.85 76.39 76.24 77.55 77.98 76.53 77.47 77.94 78.02 77.87 77.54 77.09 76.66 76.51 76.59 76.84 76.81 76.61 76.46 76.71 76.94 77.31 77.39 76.34 74.79 74.80 74.79 74.38 74.38 74.47 74.24
60.18 56.97 58.11 57.54 52.53 51.26 52.56 56.84 55.59 57.38 59.73 60.55 60.42 61.16 65.13 64.28 69.52 72.05 74.27 76.40 77.12 77.77 77.60 75.55 76.94 77.51 77.79 77.69 77.46 77.16 77.08 77.08 76.93 76.78 76.56 76.36 76.38 76.71 77.11 77.06 77.04 75.87 74.71 74.81 74.97 74.62 74.46 74.13 73.97
57.81 57.63 53.14 51.84 52.01 50.70 52.97 56.39 57.55 58.86 59.73 59.16 58.84 60.99 63.13 67.66 71.54 72.55 76.54 76.77 77.49 77.33 76.58 76.09 76.91 76.98 77.33 77.36 77.15 76.95 76.90 76.73 76.68 76.61 76.38 76.33 76.48 76.81 76.65 76.91 77.09 76.03 74.55 75.13 75.23 74.85 74.72 74.34 74.17
54.82 54.80 54.28 49.10 48.26 52.85 55.23 57.62 57.75 57.97 59.01 59.51 59.16 58.64 64.47 72.76 72.67 74.15 76.83 76.89 77.00 76.53 76.19 76.23 76.53 76.66 76.93 77.10 76.90 76.70 76.50 76.38 76.35 76.33 76.21 76.31 76.73 76.65 76.60 76.88 76.79 76.34 74.73 74.94 75.20 75.12 75.07 75.15 74.89
54.70 53.40 47.10 45.98 46.97 50.89 55.12 57.69 58.73 57.38 57.98 58.43 58.66 57.59 59.66 70.84 75.50 75.99 76.15 76.71 76.07 75.78 75.96 75.82 76.48 76.40 76.71 76.93 76.75 76.35 76.40 76.12 76.10 76.23 76.38 76.58 76.47 76.50 76.60 76.51 76.13 75.51 74.98 74.29 74.88 74.96 74.74 74.56 74.10
49.73 51.19 44.98 44.28 46.74 49.86 53.27 56.24 57.40 57.48 58.84 58.73 57.99 58.47 62.19 72.80 74.16 75.79 76.11 76.48 76.25 75.40 75.80 75.41 76.20 76.35 76.23 76.46 76.33 75.97 75.82 75.77 76.00 76.25 76.43 76.39 76.44 76.39 76.35 76.16 75.63 74.94 74.62 74.32 73.91 73.88 73.66 73.69 73.08
49.06 47.62 45.10 46.24 46.89 48.42 49.80 53.65 53.95 55.05 55.91 56.80 59.39 56.50 63.77 69.57 74.81 76.28 76.16 76.50 76.10 75.78 75.07 75.10 74.91 76.11 76.25 75.94 75.84 75.49 75.30 75.32 75.47 75.54 75.73 75.91 76.04 76.01 75.99 75.93 75.43 74.93 74.32 73.91 73.76 73.34 72.84 72.57 72.57
50.86 49.37 46.30 47.07 46.03 46.35 49.72 50.34 52.64 52.13 51.98 55.56 56.15 53.91 57.48 70.86 73.26 76.49 76.60 75.82 75.72 75.59 75.08 74.50 74.53 74.60 74.68 75.50 75.94 75.54 75.25 75.10 74.82 75.19 75.21 75.31 75.49 75.51 75.64 75.20 75.40 74.76 74.05 73.49 73.24 73.22 73.03 72.78 72.46
52.75 46.64 45.60 47.35 46.38 47.77 50.33 48.82 51.70 52.92 52.45 53.71 56.20 59.48 65.45 70.01 74.34 75.38 74.86 74.90 74.90 74.85 75.09 74.67 74.12 73.92 74.01 73.97 75.26 75.58 75.42 75.28 74.85 74.83 74.97 74.26 73.31 74.49 74.96 74.42 74.83 74.46 73.67 72.99 72.79 72.80 72.81 72.66 72.79
48.68 46.33 47.44 50.97 50.70 48.87 49.82 49.76 50.50 50.12 50.73 51.33 53.03 60.05 67.51 71.59 73.53 73.66 73.42 73.34 73.60 73.64 74.44 74.64 74.65 74.26 74.18 73.60 74.88 74.39 74.30 73.87 73.23 72.79 73.29 71.90 72.40 73.09 73.09 74.53 74.73 74.66 74.08 73.53 73.05 73.06 72.81 72.45 69.75
49.15 47.16 50.55 50.15 50.60 50.94 49.94 49.78 51.16 49.70 49.55 52.15 51.99 54.42 64.33 67.86 71.59 73.24 73.51 74.30 73.87 74.30 74.78 74.71 75.10 75.46 74.91 74.58 74.67 74.14 74.43 74.49 74.36 74.49 73.96 74.23 73.90 74.40 73.78 74.45 74.76 75.09 74.29 74.07 73.63 73.12 72.35 71.45 71.42
46.82 49.78 50.07 50.80 49.95 49.68 48.86 51.10 49.97 50.52 51.59 52.85 53.48 54.42 60.33 66.15 69.46 72.61 73.56 74.05 74.40 74.57 75.09 75.26 75.59 75.80 75.81 75.36 75.32 75.18 74.64 74.95 74.83 75.25 75.84 75.30 74.08 74.29 73.31 72.58 72.62 73.41 73.03 72.93 72.97 71.56 72.00 72.17 72.39
47.92 49.21 49.20 50.23 49.76 49.60 50.53 48.89 49.44 50.53 52.36 53.17 53.37 54.01 54.92 59.40 66.71 71.72 74.68 75.29 75.20 74.31 75.24 75.63 76.28 76.48 76.58 76.54 76.05 75.87 75.68 75.46 75.72 75.59 76.19 75.46 74.30 74.46 74.38 73.93 73.29 72.66 72.23 71.95 72.07 71.99 71.91 72.13 71.76
49.70 48.59 49.26 49.19 49.59 49.67 47.96 48.71 49.12 50.15 51.73 51.50 52.22 52.93 54.28 55.95 58.77 66.54 73.93 74.74 75.01 75.17 75.55 76.23 76.24 77.02 76.93 77.10 77.38 76.51 76.68 76.44 76.15 75.78 75.78 75.54 75.20 75.22 74.48 74.59 74.12 73.53 73.24 72.22 71.46 71.39 71.91 71.84 71.16
49.24 46.22 48.31 48.79 48.81 48.15 49.17 45.77 46.78 50.40 51.15 51.09 52.47 53.39 54.32 56.37 57.44 61.48 70.94 74.68 75.01 75.13 75.94 76.17 76.48 76.52 76.60 76.13 76.83 77.15 76.64 76.33 75.79 75.67 76.32 76.07 75.80 75.68 75.74 74.40 74.19 74.05 74.16 73.73 72.67 72.35 72.23 71.59 71.39
46.50 46.89 43.64 48.07 49.27 49.52 47.88 44.28 49.93 51.75 50.98 50.18 51.07 52.01 53.50 55.71 58.43 62.71 67.87 74.90 75.58 75.03 75.05 76.13 75.75 76.34 76.99 76.94 76.73 76.45 76.23 76.23 75.92 76.09 76.34 76.50 76.13 75.89 75.68 74.30 74.00 74.26 74.13 72.95 71.71 70.66 71.33 71.57 71.69
45.67 41.75 42.78 45.41 48.62 48.41 47.36 45.24 50.13 51.57 51.57 51.22 51.85 52.25 53.12 55.17 61.25 65.44 68.81 72.64 75.25 74.98 75.34 75.67 76.28 75.99 76.58 77.02 76.78 76.74 76.31 75.36 75.34 75.93 75.86 76.79 76.21 75.81 75.46 74.42 74.43 75.02 73.34 72.39 71.59 70.62 72.05 71.88 72.68
42.24 42.13 45.04 44.11 46.99 47.62 46.23 46.59 49.16 50.92 50.95 51.56 52.27 52.74 53.81 54.77 58.14 64.95 69.68 72.63 74.90 74.58 74.68 75.77 76.36 76.89 76.47 75.55 75.81 76.01 75.58 74.94 75.32 75.39 75.72 76.49 76.25 75.81 75.57 74.78 74.93 74.91 73.30 72.96 72.69 72.79 72.23 72.22 72.20
46.78 45.31 43.76 45.62 48.43 46.60 46.55 46.99 49.12 50.76 50.84 50.94 51.94 52.85 53.78 55.22 58.64 63.42 70.13 73.31 73.91 74.29 74.06 74.50 74.71 76.11 75.66 74.43 73.95 73.88 73.73 74.18 74.42 74.61 75.27 75.56 75.21 74.79 75.36 74.65 75.64 76.24 75.29 75.50 74.93 73.83 73.09 71.59 72.55
45.55 44.75 43.79 46.50 47.65 46.85 46.90 46.57 48.89 50.44 50.64 51.53 52.16 53.14 54.18 55.63 58.83 65.95 70.17 72.63 72.83 73.74 74.02 74.24 74.64 75.61 75.08 74.65 74.85 74.62 74.28 74.34 74.44 75.02 75.11 74.87 74.70 75.03 74.83 74.50 74.19 74.40 73.14 73.23 73.33 73.55 72.38 71.45 72.22
44.64 44.06 44.57 44.85 46.59 46.76 46.87 44.96 46.94 49.58 50.92 51.59 52.68 54.11 54.98 55.56 56.43 60.03 66.82 70.20 72.30 73.02 73.58 73.69 74.67 75.21 75.36 75.66 74.53 73.41 73.50 73.34 72.54 72.96 73.66 73.74 74.06 74.64 73.79 73.01 72.40 72.45 72.14 70.90 72.24 72.13 71.57 69.29 70.88
41.82 46.74 45.91 44.82 43.40 40.12 46.70 40.18 45.91 48.66 49.03 50.26 51.70 52.98 53.99 55.12 56.88 57.93 59.91 66.67 70.08 71.94 73.36 73.76 74.45 74.48 74.18 74.68 73.78 73.31 71.76 71.61 72.63 73.91 73.36 74.07 72.49 72.38 72.16 71.26 70.90 70.87 71.41 71.23 70.03 69.69 69.71 68.61 67.91
43.74 47.46 45.27 45.08 43.49 43.52 42.95 41.76 46.01 48.84 47.32 49.04 51.15 52.57 54.13 55.44 56.18 56.77 57.81 63.53 68.53 70.76 71.18 72.04 72.93 73.40 73.18 73.55 73.73 72.65 71.92 72.08 71.57 70.87 70.52 70.82 69.76 69.34 68.79 69.47 69.23 68.83 68.81 69.39 68.39 67.75 68.57 70.01 68.86
48.21 45.27 45.24 45.18 43.38 36.63 42.20 41.96 44.08 45.19 47.73 49.40 51.22 53.89 56.30 58.14 58.76 58.35 59.70 65.91 67.84 69.38 70.07 70.65 71.18 71.47 72.17 72.64 72.39 72.55 71.97 71.02 70.00 69.86 68.63 67.98 68.20 66.97 66.58 66.74 67.11 66.76 66.40 66.11 66.05 66.58 66.84 64.32 64.61
44.76 42.25 35.90 34.25 35.74 36.71 44.42 41.50 45.76 49.77 51.57 50.63 53.07 56.52 58.09 59.39 59.06 59.36 62.33 64.82 66.57 68.10 69.23 69.15 68.34 68.08 70.13 70.47 70.51 70.74 70.19 69.22 68.06 68.07 66.38 65.87 64.26 63.30 62.98 63.57 63.09 62.86 62.89 63.21 63.97 64.52 64.71 64.99 64.73
43.09 43.35 38.52 31.93 34.15 38.13 44.42 39.32 44.84 53.59 54.78 55.63 57.16 56.15 57.23 59.29 60.67 61.12 62.05 63.08 64.07 66.08 66.81 66.99 67.24 67.47 67.94 67.81 67.37 67.11 67.10 65.23 64.26 64.37 63.49 62.31 61.43 60.83 61.25 60.81 60.62 60.09 59.92 59.65 59.92 60.85 61.25 61.62 61.70
42.58 39.29 46.84 42.21 43.15 39.76 40.83 44.86 50.22 53.22 50.57 52.39 53.31 53.53 52.83 54.10 57.03 60.89 62.63 63.99 64.81 65.42 65.82 66.09 65.57 65.14 64.79 64.45 64.36 64.08 63.78 63.16 61.98 62.01 61.52 59.77 60.34 59.08 58.79 58.76 58.35 57.75 57.50 57.20 57.53 55.50 57.15 57.80 59.21
44.48 47.33 39.27 42.66 35.24 34.40 38.33 40.95 42.92 49.17 47.58 49.82 50.36 50.82 52.16 54.47 55.93 57.11 58.35 59.84 61.61 62.62 63.51 64.29 64.26 63.50 63.48 63.25 62.88 61.86 61.23 61.13 60.59 60.11 58.86 58.51 58.41 58.24 57.80 57.68 57.61 57.78 57.69 57.59 57.70 57.10 57.69 57.45 57.30
42.94 41.70 43.78 44.61 42.68 37.38 35.22 40.19 51.14 51.53 50.22 49.29 49.87 51.59 53.83 55.14 55.88 56.86 58.33 60.35 61.39 61.87 61.29 60.93 60.89 60.66 60.34 60.34 60.05 59.65 59.20 59.16 59.04 58.40 58.04 57.99 57.88 57.61 56.95 56.95 57.05 56.87 56.86 57.32 57.23 57.15 56.66 55.92 56.45
47.14 44.21 44.72 39.21 38.87 42.34 41.83 42.40 53.35 53.76 50.85 50.47 49.92 51.49 52.97 53.75 54.15 54.83 55.60 56.08 56.15 57.26 58.42 58.28 58.62 58.44 58.43 58.69 58.36 58.19 58.21 58.08 57.61 56.95 57.09 57.41 56.64 56.73 56.31 56.28 56.41 56.13 56.05 56.55 56.27 55.67 55.76 55.26 55.07

GFSSGP_sfc_wetblb_141.txt.gz
Wetbulb
65.29 62.86 61.92 58.44 53.95 55.58 52.76 54.77 57.66 56.56 57.22 62.12 62.37 61.50 61.39 64.68 64.83 64.95 76.12 76.89 77.44 77.53 77.56 77.23 78.25 78.43 78.61 77.82 77.52 77.01 76.56 76.41 76.46 76.89 76.99 76.64 76.84 77.32 77.39 77.67 76.94 75.87 75.39 75.36 74.94 75.26 75.25 74.67 74.13
63.21 59.02 57.20 56.08 52.28 51.19 53.43 57.27 57.14 58.39 60.34 62.03 61.64 62.01 62.03 65.14 71.26 72.81 74.88 76.59 78.09 77.88 77.67 76.91 77.89 78.15 78.28 77.80 77.27 76.89 76.66 76.69 76.76 77.01 76.84 76.61 76.74 77.11 77.29 77.37 76.61 75.21 74.87 74.85 74.53 74.23 74.27 74.18 73.79
60.88 57.75 52.95 51.31 51.20 50.58 53.48 58.30 58.81 60.32 61.31 60.26 59.53 62.65 64.64 68.64 71.81 73.95 77.48 76.99 78.03 77.55 77.23 77.58 78.02 77.86 78.00 77.77 77.14 76.81 76.76 77.01 77.06 77.01 76.71 76.74 76.74 76.99 77.16 77.17 76.71 75.10 74.86 75.04 74.66 74.46 74.15 73.96 73.84
56.54 54.51 53.67 48.55 47.61 52.61 55.13 59.08 60.05 59.62 60.76 60.56 60.22 58.85 66.16 69.16 70.78 75.65 77.41 77.22 77.24 76.82 76.38 77.01 77.48 77.53 77.82 77.79 77.54 77.11 77.18 77.06 76.94 76.84 76.54 76.64 76.86 76.88 77.04 77.27 76.89 75.71 74.98 75.29 74.97 74.89 74.66 74.08 73.93
56.28 53.53 47.83 47.22 48.24 51.62 55.71 58.17 60.61 59.26 60.02 60.18 60.03 58.16 63.42 71.74 73.87 76.60 76.26 76.78 76.02 75.53 76.09 76.46 77.05 77.35 77.49 77.67 77.36 76.96 76.86 76.58 76.56 76.59 76.59 76.79 76.86 76.73 76.96 76.81 76.33 75.49 74.76 75.29 75.29 75.09 74.92 74.82 74.70
50.96 51.77 46.58 45.38 47.82 51.03 53.74 56.71 58.20 59.55 60.38 60.18 59.08 59.06 63.21 72.20 73.09 76.45 76.17 76.54 76.03 75.13 76.06 75.29 76.81 77.15 77.05 77.16 76.93 76.63 76.20 76.25 76.25 76.33 76.31 76.58 76.45 76.68 76.68 76.49 76.05 75.54 74.86 74.48 74.81 74.63 74.30 74.17 73.42
50.78 49.37 46.50 47.63 48.54 50.30 52.52 56.27 55.46 56.69 59.03 59.37 61.50 58.20 65.68 68.85 74.16 76.99 76.14 76.65 75.86 75.46 74.90 74.35 75.33 76.68 76.75 76.59 76.52 76.29 76.14 75.95 75.87 75.95 76.04 76.22 76.32 76.42 76.38 76.11 75.63 74.94 74.53 74.24 73.85 73.58 73.50 73.14 72.85
52.86 51.41 48.12 48.74 48.08 49.18 54.28 54.63 54.87 54.90 55.62 60.07 61.23 56.52 58.66 70.70 73.24 76.97 76.16 76.04 75.38 75.08 74.47 73.88 73.78 74.31 75.36 76.75 76.35 76.17 76.09 75.92 75.89 76.11 76.13 75.96 75.99 76.15 76.18 75.66 75.66 74.98 74.64 74.08 73.90 73.49 73.12 72.71 72.67
54.81 48.40 46.75 48.29 48.86 50.71 54.86 51.71 54.45 55.70 54.04 55.37 56.41 57.30 67.34 71.74 72.46 74.86 74.89 74.82 74.61 74.37 74.57 73.91 73.05 72.81 72.96 73.07 75.37 75.41 75.41 75.73 75.59 75.71 75.74 74.90 72.78 74.71 75.24 74.36 75.60 75.38 74.83 74.37 73.99 73.54 73.49 73.19 73.31
51.99 48.01 48.48 52.04 52.86 52.17 53.23 53.08 52.80 52.01 52.03 53.12 54.69 58.29 66.26 70.51 70.75 72.79 74.03 73.32 73.84 73.70 73.95 73.97 73.77 73.51 73.56 73.10 74.26 73.22 73.28 73.57 73.31 72.83 73.77 72.03 72.37 74.01 73.72 74.52 75.56 75.23 74.91 74.50 74.05 73.83 73.86 73.15 69.39
52.00 48.03 51.70 52.26 53.84 54.16 52.47 52.70 53.77 51.93 51.14 52.98 52.98 55.75 63.00 68.22 70.16 71.16 73.65 74.02 73.99 74.51 74.60 74.14 74.68 75.54 74.11 73.59 73.94 73.55 73.58 73.11 72.69 73.02 73.72 74.09 71.63 72.72 71.56 73.23 73.99 73.78 74.36 73.80 73.21 72.71 71.59 70.30 69.46
49.42 51.14 51.51 52.73 53.84 52.69 51.54 53.43 52.13 52.66 53.26 55.91 55.76 56.61 59.30 64.20 68.19 70.60 72.60 74.19 74.42 74.78 75.00 74.83 74.85 76.06 76.47 74.64 74.44 74.16 74.06 74.18 73.85 74.17 74.45 74.80 73.26 73.76 73.08 72.14 73.69 73.82 73.35 73.68 73.35 72.71 73.46 72.12 71.77
51.51 51.60 52.20 52.63 52.96 52.73 52.32 51.39 51.80 52.46 54.75 55.96 55.34 55.67 55.57 61.66 66.19 69.56 73.77 74.98 75.60 74.71 75.22 75.18 75.54 76.64 77.66 78.16 75.31 75.11 75.02 74.66 75.53 75.69 76.06 74.91 74.87 74.87 74.09 73.35 72.63 72.37 72.22 71.71 71.69 71.69 72.61 71.66 71.80
52.75 52.24 51.95 52.27 51.88 52.24 50.16 50.52 51.57 52.64 55.19 54.66 54.71 54.65 55.28 56.35 61.58 68.15 73.10 74.55 75.26 75.74 75.65 76.00 75.74 77.56 76.72 77.48 78.73 76.21 76.01 76.40 75.76 75.55 76.10 76.49 76.09 76.31 74.83 74.96 73.98 73.62 73.18 72.55 71.71 71.55 71.79 71.82 71.97
52.49 49.66 50.85 51.08 51.22 50.63 51.81 48.27 49.20 53.13 54.27 53.25 53.27 54.29 54.70 55.48 57.57 61.80 70.05 74.34 75.70 76.08 77.52 76.62 76.66 77.34 77.69 77.80 77.98 77.54 76.72 76.43 75.58 75.44 76.92 76.85 76.82 77.54 76.66 75.43 74.61 74.24 75.30 74.16 73.46 72.76 72.76 71.11 71.52
48.72 49.32 45.93 50.24 50.38 50.89 50.27 45.65 50.63 53.32 52.96 52.19 52.65 53.88 54.68 55.71 57.21 59.59 62.30 74.87 75.98 76.10 76.54 77.73 76.88 77.44 77.38 77.41 77.49 77.63 77.39 76.62 76.26 76.15 76.48 76.69 76.63 77.05 77.89 75.28 74.60 75.02 75.34 73.49 72.38 71.62 70.38 69.75 70.10
47.04 43.12 44.57 47.53 51.50 50.14 48.79 46.49 51.01 54.05 52.76 52.41 53.00 53.83 54.02 55.10 57.11 60.48 63.42 74.20 76.73 77.07 76.50 76.81 77.20 76.61 76.74 77.59 77.29 77.25 78.75 77.03 77.89 77.44 77.02 76.98 76.49 76.08 76.36 75.18 74.70 75.93 74.20 73.28 72.48 72.03 72.54 70.42 70.62
43.05 43.72 46.17 45.48 49.94 49.88 48.61 47.83 51.51 52.99 52.70 52.88 53.62 53.82 53.97 54.56 55.99 60.22 64.35 71.97 76.44 76.59 77.16 77.00 76.73 77.35 78.80 77.38 78.30 77.31 78.70 76.49 76.27 76.00 75.88 76.61 76.29 76.18 76.65 75.17 75.96 75.65 74.49 73.92 74.96 73.86 73.97 73.16 71.94
48.20 47.27 45.89 48.36 50.38 48.22 48.02 48.76 50.10 52.53 52.99 52.63 53.68 54.39 54.51 55.02 57.30 61.84 66.50 70.23 75.45 76.44 76.07 76.55 76.81 78.42 76.79 75.83 74.24 76.23 73.89 75.50 75.53 75.61 76.17 76.83 75.85 76.70 76.70 74.76 76.10 75.95 74.97 74.94 75.43 74.20 72.78 72.58 72.94
47.13 46.93 47.19 49.23 50.81 48.76 48.27 47.97 50.69 52.27 52.27 53.25 53.61 54.46 54.79 55.97 57.04 60.01 65.74 71.06 73.39 75.05 75.41 75.94 76.50 77.24 77.21 75.73 76.19 75.80 75.39 75.85 76.13 75.36 75.76 76.39 75.24 75.33 75.44 75.96 76.04 75.55 74.75 75.36 74.46 74.38 71.43 71.45 73.54
46.40 45.81 47.32 46.88 48.77 50.23 48.11 46.87 49.37 51.94 53.01 53.56 54.25 55.37 55.74 55.82 56.90 60.06 67.14 71.50 73.35 73.69 75.03 74.89 76.49 77.11 77.14 77.22 77.03 76.16 75.32 77.41 73.88 73.89 76.63 75.36 74.56 74.49 74.49 73.95 73.54 73.53 73.02 71.66 73.05 72.57 71.72 69.33 70.08
43.71 48.84 48.56 46.96 46.20 41.87 48.19 41.41 47.89 50.61 50.77 52.14 53.28 54.38 55.37 56.39 57.48 62.15 66.70 70.99 72.94 73.33 74.01 74.07 74.70 75.66 76.70 77.16 75.91 76.15 72.99 72.79 73.97 76.94 75.68 75.03 72.83 73.07 72.97 72.47 72.02 72.03 71.83 72.39 71.60 70.82 70.00 69.89 67.90
45.49 49.08 48.16 48.37 46.71 44.97 45.01 42.95 47.51 50.31 49.10 50.72 52.84 54.02 55.59 56.74 57.45 60.06 63.90 67.63 71.36 73.50 73.23 73.31 74.10 74.60 74.78 75.84 76.25 73.75 74.90 73.47 73.25 72.75 72.61 72.44 71.20 70.74 70.13 70.52 69.85 69.36 69.72 69.70 68.76 69.30 68.88 67.28 67.55
48.78 47.10 47.53 48.13 46.69 38.57 45.40 43.72 44.89 47.88 49.92 51.58 53.04 53.99 55.20 56.01 57.03 58.26 60.36 65.79 69.33 72.07 73.68 73.15 72.98 73.33 73.53 74.45 74.80 74.94 74.06 74.48 71.71 71.58 70.07 69.95 69.84 68.27 68.18 67.68 67.97 67.24 66.96 66.73 66.56 67.50 67.77 67.36 66.80
45.76 43.80 37.70 36.62 36.90 38.41 46.87 43.38 47.11 51.63 52.54 52.66 52.68 53.51 55.16 56.40 56.81 58.21 62.01 66.85 68.86 69.87 71.07 71.51 71.62 70.97 72.61 72.30 72.31 73.01 72.67 72.79 70.98 70.67 69.51 68.86 66.41 65.21 64.59 65.02 64.20 63.88 63.73 63.59 63.59 64.01 64.35 64.79 63.12
43.93 44.29 39.15 32.49 34.90 39.18 46.26 41.73 44.54 54.10 55.32 54.52 53.96 56.00 57.77 58.62 58.87 58.83 63.97 66.13 67.67 69.41 69.99 70.15 70.00 69.78 70.43 69.05 68.94 70.09 70.77 69.00 67.75 67.63 66.17 64.93 63.86 62.87 63.28 62.05 61.80 60.64 60.22 60.19 60.38 59.79 60.41 61.58 60.37
44.04 40.55 48.03 42.44 43.77 41.13 43.91 47.04 53.21 55.10 55.10 56.81 57.40 58.03 58.57 59.23 61.38 63.56 64.75 66.00 67.15 67.87 68.53 68.40 67.93 67.25 67.61 67.42 67.09 66.85 66.64 65.70 64.39 64.53 64.77 62.63 62.73 61.37 60.90 60.51 60.46 60.50 60.16 60.22 60.60 59.51 59.50 60.00 60.41
45.95 48.69 41.24 43.35 36.00 34.95 41.15 43.69 46.01 49.78 52.35 54.14 54.49 53.81 57.07 60.39 61.50 62.87 64.60 65.71 66.44 66.25 66.15 66.59 66.60 65.89 66.03 65.73 65.26 64.15 63.59 63.33 62.71 62.23 61.16 60.91 60.70 60.67 59.92 59.46 59.77 59.66 59.79 59.93 60.25 59.93 60.09 59.14 58.35
43.64 41.75 45.37 44.82 43.53 39.16 37.70 42.36 52.64 51.91 52.95 50.96 51.41 53.03 55.68 57.66 58.26 60.17 62.50 63.77 64.47 65.23 64.82 64.52 64.31 63.71 62.81 62.73 62.48 61.89 61.45 61.19 61.08 60.50 60.24 60.05 60.28 59.20 58.43 58.46 58.39 58.41 58.43 59.19 59.18 59.05 58.45 57.87 58.12
46.02 44.73 45.94 41.10 40.46 43.41 43.23 44.26 54.25 54.77 53.65 52.05 52.43 55.57 57.81 59.05 60.14 61.37 61.86 62.13 62.05 61.91 61.99 61.69 61.64 60.89 60.91 61.03 60.70 60.33 60.46 60.35 59.82 59.42 59.23 59.41 58.56 58.51 58.41 58.11 57.78 57.95 57.96 58.64 58.38 57.82 57.75 57.54 57.22

GFSSGP_sfc_wetblb_147.txt.gz
Wetbulb
60.25 59.18 54.47 51.69 43.81 42.67 41.36 45.75 51.64 52.10 53.13 56.58 59.47 62.26 65.22 65.68 61.93 57.05 68.24 74.47 75.01 75.17 76.95 78.12 78.09 78.12 77.89 77.41 76.87 76.72 76.51 76.62 76.37 76.37 76.62 76.89 76.97 76.87 76.60 76.83 76.91 76.76 76.06 75.88 75.63 75.15 74.58 74.29 74.15
55.37 55.44 51.97 49.02 40.79 37.02 42.39 49.88 50.23 53.37 55.32 58.12 58.63 66.10 66.37 65.09 69.37 66.62 71.18 74.80 75.04 75.37 75.82 77.44 78.06 77.74 77.64 77.08 76.59 76.38 76.54 76.64 76.44 76.22 76.59 76.95 76.87 77.00 76.58 76.48 76.61 76.30 75.45 75.28 75.29 74.97 74.51 74.00 73.92
59.75 57.29 48.43 41.84 38.12 40.01 42.58 49.71 52.64 55.68 56.79 57.55 56.28 64.14 67.47 67.00 71.69 71.77 73.57 74.77 74.65 73.97 75.78 77.63 77.91 77.48 77.43 77.03 76.52 76.44 76.44 76.39 76.42 76.37 76.60 76.65 76.73 76.95 76.58 76.18 75.96 75.86 74.79 74.42 74.25 74.35 74.07 73.87 73.60
52.06 47.79 47.43 37.09 36.00 42.11 45.97 49.33 52.64 54.03 57.31 58.22 58.17 61.68 65.37 72.62 72.68 73.98 74.52 74.90 73.34 73.61 76.19 77.78 77.60 77.43 77.30 76.93 76.57 76.39 76.62 76.54 76.47 76.32 76.55 76.63 76.75 76.70 76.47 75.91 75.61 75.77 75.42 74.72 74.59 74.61 74.68 74.40 74.27
50.08 45.43 37.49 34.29 36.88 42.03 46.17 50.24 51.76 51.32 53.27 56.56 57.01 62.09 63.89 72.84 74.16 74.44 74.07 74.78 72.84 74.75 76.37 77.00 77.52 77.45 77.15 76.88 76.75 76.54 76.62 76.44 76.34 76.50 76.52 76.67 76.57 76.66 76.51 76.13 75.56 76.01 76.05 75.42 74.81 75.25 74.83 74.66 74.83
43.98 43.90 34.38 35.90 37.59 43.40 45.96 48.41 49.24 50.59 53.09 55.37 57.22 62.76 63.51 72.99 72.77 73.90 74.38 73.58 74.35 74.43 75.65 76.50 77.58 77.21 76.72 76.90 76.67 76.54 76.36 76.31 76.27 76.34 76.39 76.58 76.38 76.51 76.49 76.22 75.68 75.71 76.08 75.88 75.88 75.66 75.10 74.90 74.85
44.07 40.58 35.81 37.45 39.24 42.29 44.82 48.79 48.23 48.53 48.99 52.10 60.29 60.52 64.05 70.60 72.41 74.16 73.66 73.52 74.20 74.07 74.48 75.29 75.33 75.71 76.26 76.71 76.28 76.10 76.05 75.95 75.95 75.85 76.04 75.99 76.05 76.03 76.01 76.09 75.95 75.33 75.15 75.70 75.63 75.15 74.95 74.60 74.45
48.00 44.97 40.30 41.68 40.50 41.27 46.62 47.56 49.97 48.88 49.68 54.69 60.60 59.65 60.55 70.20 72.58 73.38 72.74 72.96 72.47 73.04 74.03 74.16 74.53 74.60 74.59 75.75 76.25 75.90 75.88 75.75 75.49 75.82 75.76 75.52 75.80 75.75 75.78 74.92 75.09 75.22 74.83 74.63 74.55 74.58 74.33 73.90 73.63
52.23 42.69 40.87 42.09 42.37 43.33 48.25 45.42 50.50 52.17 50.91 53.87 55.69 66.97 69.86 72.44 72.50 71.52 70.85 70.72 70.56 71.71 72.28 73.50 73.99 74.06 74.27 74.91 75.64 75.85 75.96 75.82 75.84 75.73 75.58 74.62 73.17 73.65 74.59 74.49 74.94 75.00 74.70 74.45 74.20 74.00 73.73 73.46 73.43
48.11 43.25 43.65 45.93 46.63 45.97 47.44 47.04 48.70 48.95 49.81 50.13 59.72 67.87 69.82 71.97 71.10 69.68 68.94 68.38 68.35 68.91 70.17 71.90 72.79 73.26 73.95 75.02 74.16 74.15 74.56 74.38 73.90 73.75 73.37 71.77 70.11 71.28 73.11 73.29 75.02 75.12 74.90 74.57 74.12 73.98 73.78 73.88 70.39
45.54 44.91 47.93 48.41 48.97 49.21 48.42 48.80 49.78 47.75 45.37 48.78 49.59 64.83 66.99 67.34 68.35 69.62 69.47 69.02 68.25 68.96 69.51 69.90 70.92 71.56 72.60 73.46 73.24 73.32 73.33 72.85 72.36 72.33 71.81 69.73 68.93 71.09 71.03 70.84 72.62 72.22 74.32 71.71 72.36 71.59 71.13 69.65 67.91
41.20 48.14 49.81 49.94 50.44 49.90 48.36 50.29 49.51 47.84 48.19 51.63 51.61 59.96 65.80 64.99 65.94 67.66 69.73 68.94 68.57 68.58 68.85 69.11 69.62 69.17 69.27 71.92 71.26 70.87 70.98 70.63 69.76 70.46 70.20 68.48 67.44 68.95 67.52 70.82 70.22 70.62 70.28 69.83 68.83 69.22 69.05 68.31 67.53
43.89 44.95 48.23 50.86 51.12 50.66 50.52 48.95 48.43 48.07 51.00 51.81 52.30 52.35 63.22 64.30 64.48 66.03 68.67 70.34 69.78 68.77 68.47 68.60 68.65 68.46 69.56 68.70 68.51 68.99 68.53 69.11 68.52 69.66 69.44 67.95 67.97 68.59 67.18 68.26 69.67 70.06 69.30 69.19 68.50 68.32 68.54 68.42 67.89
45.03 47.34 47.03 48.46 49.58 50.62 48.99 48.25 47.68 49.55 51.72 51.74 52.46 51.04 52.08 61.84 64.95 65.02 65.94 67.63 70.05 69.33 68.46 68.80 68.55 69.19 69.73 68.14 68.97 69.53 69.79 69.59 69.22 69.91 69.73 68.59 68.17 70.58 69.01 69.10 69.49 69.58 69.54 69.59 69.52 69.37 68.30 67.73 67.72
47.02 43.54 47.43 47.92 48.53 49.03 49.79 45.75 46.69 49.71 51.98 49.56 50.60 51.08 51.44 57.18 63.19 65.19 66.09 67.20 70.89 72.15 71.60 68.52 69.13 70.55 70.34 69.97 69.19 71.25 71.10 70.97 70.70 70.59 70.22 69.37 70.52 72.17 71.58 71.74 72.09 71.70 71.63 71.97 70.68 69.40 68.26 67.31 67.11
44.47 44.04 39.58 46.64 48.60 49.76 47.16 42.20 47.64 49.17 48.30 48.22 50.49 50.80 51.45 51.85 52.19 58.36 64.71 65.53 71.10 71.21 70.77 72.19 74.11 71.30 72.83 73.27 70.92 72.39 72.00 72.27 72.83 71.83 71.80 72.36 72.40 73.16 72.40 70.89 70.92 72.30 71.36 69.76 69.12 68.49 68.25 68.14 67.93
42.19 36.92 39.71 42.89 48.92 48.67 47.69 42.75 47.58 48.79 48.06 47.61 48.48 49.57 50.42 50.22 51.65 52.70 59.13 66.15 70.83 70.25 69.91 71.31 72.07 72.35 72.46 73.86 74.43 73.50 73.70 73.41 73.58 74.25 73.25 73.93 74.05 73.65 71.94 72.01 71.62 72.16 70.68 70.34 70.11 69.31 68.95 67.82 67.93
36.91 37.82 40.67 41.06 46.06 48.07 46.24 45.46 46.58 48.46 47.79 47.99 48.66 49.06 49.44 49.74 50.31 52.25 54.24 68.78 71.48 68.85 67.24 69.89 70.97 71.71 73.03 74.70 74.25 74.00 73.62 73.73 72.77 73.65 73.67 74.31 73.11 73.36 72.23 71.66 71.82 71.28 69.98 69.27 69.25 69.36 70.47 69.42 69.26
42.96 41.08 40.42 44.01 47.28 45.91 45.30 45.13 45.86 47.58 46.83 46.98 47.34 47.70 48.09 48.98 51.35 53.29 55.00 66.25 69.02 70.86 68.64 67.43 68.13 71.70 73.43 72.57 71.79 71.18 70.43 71.69 71.62 72.96 73.98 73.61 73.44 73.55 72.23 71.45 70.47 70.63 69.76 69.46 69.79 69.48 68.07 67.29 68.34
41.08 40.47 40.57 44.94 47.93 45.96 44.07 44.03 46.01 47.51 47.25 47.58 48.43 48.17 48.48 48.88 51.08 53.67 53.40 69.05 70.26 69.83 67.41 64.12 69.46 72.17 72.52 72.85 72.39 72.21 71.12 71.79 71.09 72.48 73.39 72.54 72.81 72.42 72.15 71.00 71.01 70.98 69.64 69.18 69.30 67.98 66.79 66.74 67.04
39.19 39.39 40.57 41.60 45.66 46.87 44.37 41.65 44.75 48.00 48.46 48.37 49.79 50.06 49.75 50.16 50.07 51.67 53.23 70.58 71.82 70.51 69.24 68.00 70.00 66.95 71.58 73.18 72.65 71.88 70.32 70.30 69.82 70.28 70.87 71.88 72.77 72.36 71.77 70.58 69.84 68.43 68.68 67.96 67.40 67.04 65.60 63.67 64.36
35.90 43.83 44.71 43.88 41.93 37.07 45.17 35.46 42.41 45.67 46.30 47.40 48.22 49.15 49.81 50.41 51.49 51.54 60.96 68.80 69.34 69.65 68.78 67.68 70.47 71.01 71.90 72.03 71.25 69.71 68.36 68.05 68.57 69.94 70.51 70.05 70.55 70.51 70.13 68.66 67.57 66.26 66.92 64.82 64.53 66.17 64.08 63.38 61.27
37.08 44.32 44.04 43.72 41.79 40.59 41.86 37.16 41.61 44.63 44.13 46.45 47.54 49.01 50.27 50.38 51.24 51.53 64.81 69.24 69.47 69.47 67.43 62.44 65.66 70.48 71.53 71.23 71.02 70.43 67.98 68.88 70.46 70.41 66.95 66.43 66.37 66.99 67.13 65.99 64.23 62.35 62.87 61.45 60.34 60.46 61.85 61.81 60.48
43.43 41.25 42.76 42.57 40.98 34.40 40.75 37.94 36.17 42.36 44.65 46.54 47.63 49.22 51.05 50.60 51.10 57.64 64.33 70.54 69.00 69.75 68.14 67.88 69.47 69.23 70.30 70.02 69.75 69.06 68.67 68.68 69.41 67.22 65.73 64.90 63.10 62.92 62.17 62.33 61.74 59.64 58.95 57.38 56.72 56.44 57.36 57.91 57.02
39.41 36.69 31.70 31.33 32.04 31.67 42.29 39.57 37.86 45.43 47.44 47.80 48.01 48.77 50.22 50.79 50.42 58.82 63.79 67.88 67.52 68.44 69.13 69.46 67.53 67.38 68.57 68.73 68.98 68.91 68.07 68.27 67.89 67.11 66.01 62.19 60.72 59.40 58.65 58.69 56.92 56.01 56.21 56.33 56.40 55.19 55.62 55.25 53.74
36.57 35.81 32.15 26.69 28.47 32.40 41.45 37.48 40.76 47.12 50.02 50.00 50.32 49.40 50.42 50.14 49.64 59.70 66.63 67.51 66.88 67.42 67.39 67.29 67.44 67.80 68.27 66.02 65.84 65.85 64.03 62.74 62.41 62.79 61.57 60.20 58.81 57.67 57.54 57.04 56.20 56.17 56.39 56.17 55.45 54.97 54.85 55.41 54.64
36.52 33.71 39.36 33.85 36.55 32.97 36.73 40.60 49.28 50.07 49.39 48.69 49.05 49.41 49.06 48.85 52.51 60.78 65.49 65.39 65.71 65.12 65.12 65.40 65.58 65.03 63.22 63.25 62.30 61.85 61.64 60.61 59.30 58.04 57.73 57.97 56.91 57.35 56.09 55.89 55.33 55.45 55.51 56.04 54.03 53.83 53.43 53.39 53.70
39.29 42.17 33.30 35.96 28.23 28.38 36.23 37.88 38.62 45.13 46.88 47.98 47.79 46.76 51.40 59.24 60.91 61.96 63.25 63.65 63.52 63.51 63.14 63.05 63.62 62.83 61.75 60.86 60.20 59.01 58.52 58.20 57.48 57.24 56.06 55.37 55.25 55.23 54.51 54.20 53.99 54.07 54.44 54.62 53.75 52.88 53.47 53.48 52.47
36.29 36.49 38.93 36.75 35.51 29.11 30.91 34.91 46.85 48.10 46.68 48.88 52.63 55.97 58.30 59.12 59.78 60.39 61.13 61.70 61.64 61.96 61.87 61.10 60.46 59.73 59.19 58.93 58.50 57.51 56.94 56.81 56.43 55.53 55.06 54.71 53.48 53.37 53.34 53.76 53.49 53.44 53.95 53.54 52.74 52.12 52.59 52.55 52.41
40.66 38.47 39.91 33.41 31.83 38.01 37.81 35.36 50.37 51.49 52.40 53.37 53.95 57.35 58.71 59.05 58.79 59.44 59.67 59.86 59.85 59.52 58.97 58.35 58.81 58.20 57.52 56.97 56.59 55.85 55.79 54.94 53.63 53.26 53.31 52.90 52.52 53.04 53.49 53.96 53.99 53.32 52.15 51.09 50.54 50.56 51.18 51.09 51.29